Location: Boise
(43.6140°N, 116.2030°W)
Time: 08:22:17
(UTC-07:00)

Daily predictions for brighter satellites

Satellite Brightness Start Highest point End
(mag) Time Altitude Azimuth Time Altitude Azimuth Time Altitude Azimuth
PAYLOAD A 3.9 17:34:58 10° SSE 17:39:46 65° ENE 17:44:48 10° N
EO 1 Del DPAF 4.2 17:37:33 10° N 17:41:19 49° WNW 17:45:03 10° SSW
CSL-04 Debris 4.4 17:36:15 10° SSE 17:41:38 81° WSW 17:47:05 10° NNW
Cosmos 2218 Rocket 4.0 17:36:06 10° N 17:42:24 74° E 17:48:34 10° SSE
Abrixas 2.4 17:39:28 10° WNW 17:42:24 65° NNE 17:45:20 10° ESE
CZ-4 R/B 1.6 17:39:44 10° SSE 17:43:47 53° ENE 17:47:47 10° N
Cosmos 1544 Rocket 3.6 17:39:21 10° N 17:43:51 83° E 17:48:19 10° S
Cosmos 1844 Rocket 3.4 17:41:38 10° SW 17:47:06 54° WNW 17:52:38 10° NNE
USA 234 3.6 17:41:32 10° NE 17:47:57 54° SE 17:54:18 10° SSW
CRYOSAT 2 4.4 17:43:12 10° N 17:48:05 66° E 17:52:56 10° S
Cosmos 1975 Rocket 4.1 17:45:55 10° SSW 17:50:04 47° WNW 17:54:16 10° N
COSMO-SKYMED 1 4.1 17:48:01 10° NE 17:50:49 17° E 17:53:36 10° SE
Cosmos 1812 2.7 17:48:06 10° S 17:51:56 70° E 17:55:47 10° NNE
MOS 1 4.3 17:48:09 10° SSE 17:53:43 64° ENE 17:59:18 10° N
Meteor 1-12 Rocket 4.3 17:47:55 10° N 17:53:45 73° ENE 17:59:39 10° SSE
MSX 4.2 17:48:34 10° SE 17:53:56 43° ENE 17:59:19 10° N
CZ-2C R/B 2.5 17:50:23 10° SSE 17:55:20 61° ENE 18:00:26 10° N
CORIOLIS 4.2 17:51:17 10° SSE 17:56:32 56° ENE 18:01:47 10° N
CZ-2C R/B 4.1 17:52:47 10° N 17:57:12 65° WNW 18:01:39 10° SSW
NOSS 3-4 (A) 4.3 17:53:06 10° NNW 17:59:30 38° NE 18:06:14 10° ESE
NOSS 3-4 (C) 4.3 17:53:12 10° NNW 17:59:35 38° NE 18:06:19 10° ESE
BREEZE-M DEB (TANK) 4.2 17:50:56 10° W 17:59:36 44° NNW 18:03:26 12° ENE
Cosmos 921 Rocket 3.8 17:58:14 10° SSE 18:01:58 30° E 18:05:47 10° NE
SJ-12 3.8 18:00:33 10° SSE 18:04:39 79° ENE 18:08:47 10° N
Cosmos 1536 Rocket 3.6 18:02:15 10° S 18:06:43 82° E 18:11:13 10° N
Timation 2 Rocket 4.2 18:00:22 10° NNW 18:07:11 66° ENE 18:14:01 10° SE
NOSS 3-3 (A) 4.1 18:01:04 10° SW 18:07:17 86° NW 18:14:02 10° NE
NOSS 3-3 (C) 4.1 18:01:10 10° SW 18:07:23 86° NW 18:14:08 10° NE
BREEZE M DEB (TANK) 3.1 18:07:30 10° WNW 18:10:27 47° NNE 18:18:05 10° E
ATLAS 2AS CENTAUR R/B 4.2 18:06:54 10° NW 18:14:28 46° WSW 18:21:32 10° S
COSMOS 2487 2.5 18:12:39 10° NNW 18:16:15 85° WSW 18:19:50 10° SSE
YAOGAN 1 2.5 18:11:59 10° SSE 18:16:18 86° ENE 18:20:39 10° NNW
Okean 1 3.6 18:17:43 10° SSW 18:21:46 73° W 18:25:51 10° N
Cosmos 2297 3.7 18:16:13 10° SSW 18:21:47 66° ESE 18:27:15 11° NNE
SPOT 3 Rocket 3.8 18:19:00 10° S 18:24:10 74° WSW 18:29:21 10° NNW
Meteor 2-21 Rocket 4.4 18:18:20 10° N 18:24:30 63° E 18:30:34 10° SSE
GRACE-2 4.3 18:24:08 10° SSE 18:26:45 39° E 18:27:49 26° NE
SL-8 R/B 3.9 18:22:15 10° W 18:26:59 60° NNW 18:29:59 22° ENE
GRACE-1 4.2 18:24:33 10° SSE 18:27:11 41° E 18:28:18 26° NNE
Cosmos 1346 Rocket 2.7 18:23:26 10° S 18:27:20 89° ENE 18:31:13 10° N
Cosmos 1666 3.6 18:24:47 10° NNE 18:28:08 27° ENE 18:31:28 10° SE
Cosmos 2278 Rocket 2.9 18:25:45 10° SW 18:31:15 53° WNW 18:36:49 10° NNE
SMAP 3.6 18:27:23 10° S 18:31:59 61° W 18:36:36 10° NNW
ISS -1.5 18:29:56 10° NW 18:32:29 20° N 18:33:22 18° NNE
Nadezhda 3 Rocket 3.9 18:27:24 10° S 18:33:34 73° E 18:39:51 10° NNE
BREEZE-M DEB (TANK) 2.9 18:32:51 10° WNW 18:34:47 28° N 18:35:14 26° NNE
SL-24 DEB 4.2 18:30:49 10° N 18:35:35 89° E 18:40:16 10° S
SKYMED 2 3.7 18:35:39 14° NNE 18:39:11 52° E 18:43:24 10° S
BREEZE M DEB (TANK) 3.0 18:31:55 10° SW 18:40:25 60° SSE 18:41:52 32° E
OE (NEXTSAT) 4.5 18:39:18 10° W 18:42:52 67° N 18:43:59 40° ENE
GEOS 3 Rocket 4.1 18:41:16 24° E 18:43:37 38° NE 18:48:19 10° NNW
Tiangong 1 1.0 18:42:11 10° WSW 18:45:12 69° S 18:45:43 53° ESE
CZ-3B DEB 3.0 18:42:47 10° W 18:47:01 53° NNW 18:53:54 20° NE
Cosmos 1833 Rocket 2.7 18:42:36 10° NNW 18:48:16 85° WSW 18:53:53 10° SSE
Cosmos 1743 2.7 18:46:07 10° N 18:50:00 85° W 18:53:51 10° S
Cosmos 1190 Rocket 4.2 18:45:16 10° N 18:50:20 46° ENE 18:55:19 10° SE
Timation 1 Rocket 4.3 18:45:18 10° SSW 18:51:16 90° E 18:56:01 17° NNE
IDEFIX/ARIANE 42P 3.9 18:48:51 10° SSW 18:53:44 41° W 18:58:38 10° NNW
CZ-3A R/B 4.4 18:47:54 10° W 18:54:11 56° N 19:13:42 22° ENE
Cosmos 1892 Rocket 4.3 18:51:23 10° SSE 18:54:30 32° ESE 18:54:30 32° ESE
Cosmos 2082 Rocket 2.6 18:50:01 10° NNW 18:55:38 64° WSW 19:01:14 10° S
Meteor 1-28 Rocket 3.5 18:56:17 45° ESE 18:56:17 45° ESE 18:59:45 10° S
Okean 1-7 Rocket 3.7 18:53:21 10° SSW 18:57:50 78° W 19:02:19 10° N
NOSS 2-1 (D) 3.4 18:55:16 10° SW 18:59:06 78° NW 19:00:40 37° NNE
NOSS 2-1 (C) 3.4 18:55:56 10° SW 18:59:47 79° NW 19:01:20 38° NNE
Cosmos 1726 Rocket 3.7 18:56:54 10° N 19:01:14 50° ENE 19:05:34 10° SSE
NOSS 7 (E) 4.2 18:59:10 10° SSW 19:02:33 72° SE 19:02:33 72° SE
Cosmos 1484 Rocket 3.3 19:01:20 10° S 19:05:00 56° W 19:08:41 10° NNW
Okean 2 3.8 19:03:04 10° S 19:06:21 44° SE 19:06:21 44° SE
Intercosmos 25 4.2 19:07:37 10° NNW 19:10:37 40° W 19:13:51 10° SSW
Meteor 1-19 Rocket 4.5 19:06:14 10° SSW 19:12:01 72° WNW 19:17:55 10° N
DMSP B5D1-3 4.4 19:09:17 19° NNE 19:13:01 85° ESE 19:18:08 10° SSW
BREEZE-M R/B 4.0 19:04:03 10° WSW 19:13:36 61° NNW 19:15:18 41° NE
Cosmos 1934 Rocket 3.9 19:11:34 10° N 19:17:49 88° E 19:24:08 10° S
NOSS 2-1 (E) 3.9 19:14:40 10° SW 19:18:31 57° NW 19:19:30 45° N
Cosmos 1606 Rocket 3.5 19:15:57 10° N 19:20:28 86° WSW 19:24:56 10° S
Meteor 2-8 Rocket 4.3 19:15:48 10° S 19:21:52 80° E 19:27:14 14° N
Meteor 1-15 Rocket 4.2 19:19:54 10° N 19:25:49 86° E 19:31:38 10° S
COSMO-SKYMED 1 3.5 19:24:15 18° N 19:27:13 47° WNW 19:31:22 10° SW
USA 234 3.7 19:28:02 32° NNE 19:30:55 53° NNW 19:37:14 10° WSW
Meteor 2-9 Rocket 4.4 19:27:47 10° NNW 19:33:10 65° W 19:38:25 10° S
Cosmos 2369 Rocket 3.5 19:29:58 10° S 19:32:38 26° SSE 19:32:38 26° SSE
Meteor 1-23 Rocket 4.4 19:30:08 10° SSW 19:35:49 72° WNW 19:39:33 22° N
Meteor 2-4 Rocket 4.1 19:34:22 10° SSW 19:39:37 56° WNW 19:43:23 19° N
Cosmos 1025 Rocket 4.2 19:35:56 10° SSW 19:40:05 42° WNW 19:42:06 26° NNW
Cosmos 407 Rocket 3.5 19:36:21 10° NNW 19:41:30 77° WSW 19:42:47 51° S
Cosmos 2056 Rocket 3.9 19:37:54 10° SSW 19:43:13 62° WNW 19:44:38 45° N
NOSS 3-4 (A) 4.3 19:43:53 10° NW 19:50:46 59° WSW 19:58:03 10° SSE
NOSS 3-4 (C) 4.3 19:43:59 10° NW 19:50:53 59° WSW 19:58:10 10° SSE
CZ-3A R/B 4.2 19:49:35 10° WNW 19:57:07 30° N 19:57:35 29° N
Cosmos 1605 Rocket 4.4 19:55:20 10° NNW 20:01:32 61° W 20:07:35 10° S
FALCON 9 R/B 4.0 20:42:24 10° W 20:53:48 36° SW 20:53:48 36° SW
CZ-3B DEB 4.4 21:16:19 10° WNW 21:21:49 44° NNW 21:21:49 44° NNW
